LIPSM ENBR-ENAL

Flight info

Callsign LIPSM
Flight time N/A
Altitude 3500
Route FLO
Aircraft PA34/L-SDFGRY/S

Departure

Time 2026-05-04 09:38
Airport Bergen Airport, Flesland (ENBR)

Arrival

Time N/A
Airport Ålesund Airport (ENAL)
Time Latitude Longitude Altitude Speed Heading
2026-05-04 09:25 60.29945 5.22664 162 ft 0 kts 143°
2026-05-04 09:32 60.29933 5.22677 162 ft 7 kts 160°
2026-05-04 09:34 60.29265 5.22284 159 ft 18 kts 168°
2026-05-04 09:34 60.29122 5.22337 163 ft 16 kts 164°
2026-05-04 09:34 60.29019 5.22236 161 ft 18 kts 156°
2026-05-04 09:34 60.28917 5.22181 160 ft 9 kts 265°
2026-05-04 09:35 60.28913 5.22128 159 ft 0 kts 258°
2026-05-04 09:35 60.28912 5.22124 159 ft 1 kts 258°
2026-05-04 09:35 60.28910 5.22096 158 ft 2 kts 260°
2026-05-04 09:37 60.31467 5.21081 594 ft 116 kts 342°
2026-05-04 09:37 60.32247 5.20249 616 ft 124 kts 325°
2026-05-04 09:38 60.32985 5.19236 643 ft 121 kts 323°
2026-05-04 09:38 60.33593 5.18037 684 ft 119 kts 311°
2026-05-04 09:38 60.34005 5.16573 773 ft 114 kts 283°
2026-05-04 09:38 60.34164 5.14898 790 ft 116 kts 279°
2026-05-04 09:39 60.34311 5.13152 756 ft 122 kts 279°
2026-05-04 09:39 60.34694 5.11605 774 ft 121 kts 313°
2026-05-04 09:39 60.35316 5.10370 808 ft 120 kts 317°
2026-05-04 09:39 60.36041 5.09282 792 ft 122 kts 324°
2026-05-04 09:40 60.36802 5.08244 813 ft 122 kts 327°
2026-05-04 09:40 60.37611 5.07423 826 ft 122 kts 337°
2026-05-04 09:40 60.38486 5.06982 870 ft 121 kts 348°
2026-05-04 09:40 60.39396 5.06783 886 ft 121 kts 358°
2026-05-04 09:41 60.40295 5.06767 913 ft 121 kts 355°
2026-05-04 09:42 60.46202 5.03456 1063 ft 121 kts 335°
2026-05-04 09:43 60.47025 5.02724 1092 ft 120 kts 332°
2026-05-04 09:43 60.47798 5.01854 1111 ft 120 kts 328°
2026-05-04 09:43 60.48548 5.00900 1141 ft 119 kts 326°
2026-05-04 09:43 60.49312 4.99886 1165 ft 119 kts 328°
2026-05-04 09:44 60.50080 4.99040 1190 ft 119 kts 335°
2026-05-04 09:44 60.50902 4.98307 1211 ft 119 kts 335°
2026-05-04 09:44 60.51724 4.97582 1257 ft 118 kts 337°
2026-05-04 09:46 60.57427 4.93955 1433 ft 118 kts 348°
2026-05-04 09:46 60.58275 4.93656 1421 ft 121 kts 346°
2026-05-04 09:46 60.59100 4.93350 1493 ft 116 kts 349°
2026-05-04 09:47 60.59929 4.93025 1444 ft 122 kts 346°
2026-05-04 09:47 60.60752 4.92590 1485 ft 118 kts 346°
2026-05-04 09:49 60.66301 4.89886 2031 ft 118 kts 355°
2026-05-04 09:49 60.67086 4.89836 2239 ft 110 kts 360°
2026-05-04 09:49 60.67870 4.89700 2298 ft 115 kts 347°
2026-05-04 09:51 60.72920 4.89867 2724 ft 126 kts 355°
2026-05-04 09:51 60.73798 4.89866 2861 ft 121 kts
2026-05-04 09:51 60.74684 4.89931 2843 ft 127 kts 358°
2026-05-04 09:51 60.75599 4.89872 2784 ft 128 kts 358°
2026-05-04 09:52 60.76496 4.89780 2729 ft 129 kts 348°
2026-05-04 09:52 60.77407 4.89479 2627 ft 129 kts 348°
2026-05-04 09:52 60.78312 4.89184 2498 ft 131 kts 352°
2026-05-04 09:52 60.79195 4.89023 2538 ft 119 kts 354°
2026-05-04 09:53 60.79998 4.88891 2596 ft 116 kts 356°
2026-05-04 09:53 60.80796 4.88921 2644 ft 111 kts
2026-05-04 09:53 60.81549 4.89121 2676 ft 111 kts
2026-05-04 09:53 60.82284 4.89360 2751 ft 105 kts
2026-05-04 09:54 60.83034 4.89670 2738 ft 106 kts 13°
2026-05-04 09:54 60.83659 4.90009 2956 ft 85 kts 360°
2026-05-04 09:54 60.84237 4.90072 3044 ft 80 kts
2026-05-04 09:54 60.84445 4.90119 2882 ft 91 kts
2026-05-04 09:55 60.85119 4.90226 2915 ft 98 kts
2026-05-04 09:55 60.85786 4.90383 3131 ft 98 kts
2026-05-04 09:55 60.86471 4.90577 3357 ft 101 kts
2026-05-04 09:55 60.87174 4.90618 3527 ft 104 kts 359°
2026-05-04 09:56 60.87941 4.90576 3596 ft 119 kts 358°
2026-05-04 09:56 60.88783 4.90569 3646 ft 124 kts
2026-05-04 09:56 60.89672 4.90630 3682 ft 127 kts
2026-05-04 09:56 60.90589 4.90666 3697 ft 131 kts
2026-05-04 09:57 60.91529 4.90699 3714 ft 132 kts 360°
2026-05-04 09:57 60.92498 4.90681 3724 ft 135 kts 358°
2026-05-04 09:57 60.93486 4.90557 3730 ft 135 kts 354°
2026-05-04 09:57 60.94478 4.90325 3761 ft 135 kts 353°
2026-05-04 09:58 60.95464 4.90055 3778 ft 135 kts 352°
2026-05-04 09:58 60.96314 4.89790 3794 ft 135 kts 351°
2026-05-04 09:58 60.97267 4.89464 3814 ft 135 kts 350°
2026-05-04 10:00 61.04117 4.87805 3747 ft 138 kts 352°
2026-05-04 10:00 61.05100 4.87516 3740 ft 138 kts 350°
2026-05-04 10:02 61.11966 4.86438 3701 ft 138 kts 357°
2026-05-04 10:04 61.18811 4.85615 3667 ft 138 kts 356°
2026-05-04 10:04 61.19808 4.85514 3663 ft 138 kts 358°
2026-05-04 10:04 61.20797 4.85439 3659 ft 138 kts 357°
2026-05-04 10:04 61.21804 4.85354 3655 ft 138 kts 357°
2026-05-04 10:05 61.22797 4.85220 3651 ft 138 kts 354°
2026-05-04 10:05 61.23776 4.85029 3648 ft 138 kts 353°
2026-05-04 10:05 61.24748 4.84773 3643 ft 138 kts 351°
2026-05-04 10:05 61.25731 4.84596 3634 ft 138 kts 359°
2026-05-04 10:06 61.26716 4.84655 3629 ft 138 kts
2026-05-04 10:06 61.27719 4.84814 3632 ft 137 kts
2026-05-04 10:06 61.28711 4.85022 3626 ft 138 kts
2026-05-04 10:08 61.35070 4.86529 3677 ft 161 kts
2026-05-04 10:08 61.36205 4.86681 3670 ft 162 kts
2026-05-04 10:08 61.37349 4.86862 3622 ft 165 kts
2026-05-04 10:08 61.38501 4.87082 3615 ft 164 kts
2026-05-04 10:09 61.39634 4.87289 3627 ft 162 kts
2026-05-04 10:09 61.40792 4.87528 3607 ft 163 kts
2026-05-04 10:09 61.41946 4.87767 3588 ft 164 kts
2026-05-04 10:09 61.43104 4.87936 3584 ft 163 kts
2026-05-04 10:10 61.44275 4.88095 3576 ft 163 kts
2026-05-04 10:10 61.45422 4.88240 3561 ft 163 kts
2026-05-04 10:10 61.46593 4.88326 3552 ft 163 kts
2026-05-04 10:10 61.47746 4.88413 3544 ft 163 kts
2026-05-04 10:11 61.48896 4.88447 3533 ft 163 kts 359°
2026-05-04 10:11 61.50069 4.88373 3522 ft 163 kts 357°
2026-05-04 10:11 61.51231 4.88361 3512 ft 163 kts
2026-05-04 10:11 61.52404 4.88509 3508 ft 163 kts
2026-05-04 10:12 61.53580 4.88714 3517 ft 162 kts
2026-05-04 10:12 61.54742 4.88897 3511 ft 162 kts
2026-05-04 10:12 61.55914 4.89075 3503 ft 162 kts
2026-05-04 10:12 61.57061 4.89223 3504 ft 162 kts
2026-05-04 10:13 61.58210 4.89335 3502 ft 162 kts
2026-05-04 10:13 61.59389 4.89501 3497 ft 162 kts
2026-05-04 10:13 61.60544 4.89718 3494 ft 162 kts
2026-05-04 10:13 61.61696 4.89924 3494 ft 162 kts
2026-05-04 10:14 61.62859 4.90112 3491 ft 162 kts
2026-05-04 10:14 61.63998 4.90427 3485 ft 162 kts
2026-05-04 10:16 61.71841 4.92535 3402 ft 164 kts 317°
2026-05-04 10:16 61.71981 4.90256 3191 ft 159 kts 256°
2026-05-04 10:16 61.72145 4.88059 3269 ft 151 kts 296°
2026-05-04 10:16 61.72938 4.86537 3264 ft 150 kts 323°
2026-05-04 10:17 61.73901 4.85792 3357 ft 145 kts 346°
2026-05-04 10:17 61.74934 4.85752 3332 ft 150 kts
2026-05-04 10:19 61.81250 4.94116 3484 ft 164 kts 37°
2026-05-04 10:19 61.82134 4.95585 3494 ft 162 kts 39°
2026-05-04 10:19 61.83000 4.97090 3534 ft 160 kts 39°
2026-05-04 10:19 61.83859 4.98614 3524 ft 161 kts 39°
2026-05-04 10:20 61.84721 5.00114 3514 ft 162 kts 38°
2026-05-04 10:20 61.85600 5.01612 3530 ft 161 kts 38°
2026-05-04 10:20 61.86469 5.03137 3537 ft 161 kts 41°
2026-05-04 10:20 61.87315 5.04661 3531 ft 162 kts 38°
2026-05-04 10:21 61.88205 5.06133 3536 ft 161 kts 37°
2026-05-04 10:21 61.89111 5.07543 3543 ft 161 kts 34°
2026-05-04 10:21 61.90051 5.08859 3535 ft 162 kts 31°
2026-05-04 10:21 61.91008 5.10078 3535 ft 162 kts 30°
2026-05-04 10:22 61.93006 5.12414 3542 ft 162 kts 27°
2026-05-04 10:22 61.94003 5.13523 3521 ft 161 kts 26°
2026-05-04 10:22 61.95009 5.14608 3395 ft 163 kts 26°
2026-05-04 10:23 61.96023 5.15647 3311 ft 162 kts 25°
2026-05-04 10:23 61.97056 5.16726 3226 ft 161 kts 27°
2026-05-04 10:25 62.04219 5.24432 2964 ft 162 kts 24°
2026-05-04 10:25 62.05241 5.25444 2958 ft 163 kts 24°
2026-05-04 10:25 62.06266 5.26497 2966 ft 162 kts 25°
2026-05-04 10:25 62.07270 5.27599 2970 ft 162 kts 27°
2026-05-04 10:26 62.08242 5.28760 2969 ft 162 kts 30°
2026-05-04 10:26 62.09208 5.30049 2969 ft 162 kts 32°
2026-05-04 10:26 62.10162 5.31340 2964 ft 163 kts 31°
2026-05-04 10:26 62.11138 5.32623 2915 ft 165 kts 30°
2026-05-04 10:27 62.12139 5.33876 2896 ft 165 kts 29°
2026-05-04 10:27 62.13144 5.35043 2898 ft 164 kts 27°
2026-05-04 10:27 62.14180 5.36139 2879 ft 164 kts 24°
2026-05-04 10:27 62.15226 5.37177 2817 ft 165 kts 24°
2026-05-04 10:28 62.16280 5.38255 2718 ft 167 kts 26°
2026-05-04 10:28 62.17316 5.39395 2654 ft 166 kts 27°
2026-05-04 10:28 62.18337 5.40562 2603 ft 165 kts 28°
2026-05-04 10:28 62.19354 5.41765 2532 ft 166 kts 28°
2026-05-04 10:29 62.20375 5.42970 2461 ft 166 kts 28°
2026-05-04 10:29 62.21403 5.44150 2400 ft 165 kts 27°
2026-05-04 10:29 62.22422 5.45309 2371 ft 163 kts 28°
2026-05-04 10:29 62.23410 5.46532 2338 ft 163 kts 30°
2026-05-04 10:30 62.24421 5.47872 2276 ft 164 kts 31°
2026-05-04 10:30 62.25417 5.49176 2226 ft 163 kts 30°
2026-05-04 10:30 62.26416 5.50388 2187 ft 163 kts 27°
2026-05-04 10:30 62.27444 5.51552 2161 ft 162 kts 26°
2026-05-04 10:31 62.28459 5.52666 2152 ft 160 kts 26°
2026-05-04 10:31 62.29454 5.53773 2116 ft 161 kts 27°
2026-05-04 10:32 62.34934 5.62308 1947 ft 161 kts 54°
2026-05-04 10:33 62.35562 5.64318 1975 ft 158 kts 56°
2026-05-04 10:33 62.36143 5.66341 1972 ft 158 kts 59°
2026-05-04 10:33 62.36709 5.68457 1940 ft 159 kts 61°
2026-05-04 10:33 62.37272 5.70622 1934 ft 159 kts 60°
2026-05-04 10:34 62.37839 5.72728 1932 ft 158 kts 59°
2026-05-04 10:34 62.38411 5.74882 1915 ft 159 kts 60°
2026-05-04 10:34 62.39011 5.76985 1900 ft 159 kts 56°
2026-05-04 10:34 62.39620 5.79091 1878 ft 159 kts 60°
2026-05-04 10:35 62.40185 5.81282 1859 ft 159 kts 60°
2026-05-04 10:35 62.40770 5.83392 1857 ft 158 kts 56°
2026-05-04 10:35 62.41394 5.85421 1854 ft 158 kts 56°
2026-05-04 10:35 62.42010 5.87481 1840 ft 158 kts 57°
2026-05-04 10:36 62.42637 5.89545 1829 ft 158 kts 55°
2026-05-04 10:36 62.43286 5.91582 1806 ft 159 kts 55°
2026-05-04 10:36 62.43928 5.93545 1758 ft 148 kts 55°
2026-05-04 10:36 62.44527 5.95430 1673 ft 144 kts 54°
2026-05-04 10:37 62.45107 5.97299 1585 ft 142 kts 56°
2026-05-04 10:37 62.45675 5.99144 1550 ft 141 kts 55°
2026-05-04 10:37 62.46263 6.00910 1517 ft 140 kts 53°
2026-05-04 10:37 62.46875 6.02595 1474 ft 140 kts 45°
2026-05-04 10:39 62.52262 6.08914 1015 ft 142 kts 44°
2026-05-04 10:39 62.52826 6.10678 1011 ft 138 kts 62°
2026-05-04 10:39 62.53257 6.12547 1020 ft 136 kts 63°
2026-05-04 10:40 62.53728 6.14268 976 ft 116 kts 46°
2026-05-04 10:40 62.54185 6.15666 825 ft 104 kts 55°
2026-05-04 10:40 62.54538 6.17032 715 ft 97 kts 55°
2026-05-04 10:40 62.54926 6.18049 696 ft 80 kts 47°
2026-05-04 10:41 62.55207 6.18638 529 ft 80 kts